Regional Weather Roundup
Issued by NWS Goodland, KS

Home | Current Version | Previous Version | Text Only | Print | Product List | Glossary On
Versions: 1 2 3 4 5 6 7 8 9 10 11 12 13 14 15 16 17 18 19 20 21 22 23 24 25 26 27 28 29 30 31 32 33 34 35 36 37 38 39 40 41 42 43 44 45 46 47 48 49 50
000
ASUS43 KGLD 281159
RWRGLD

GOODLAND FORECAST AREA HOURLY WEATHER ROUNDUP
NATIONAL WEATHER SERVICE GOODLAND KS
600 AM MDT WED SEP 28 2016

...OFFICIAL OBSERVATIONS...

CITY           SKY/WX    TMP DP  RH WIND       PRES   REMARKS
GOODLAND KS    CLEAR     45  36  70 W7        30.16R
HILL CITY KS   CLEAR     48  44  86 W3        30.09R
IMPERIAL NEB   CLEAR     47  38  71 NW5       30.16R
MCCOOK NEB     CLEAR     45  40  82 W7        30.13R
AKRON CO       CLEAR     55  28  35 NW7       30.23R
BURLINGTON CO  CLEAR     47  34  60 NW10      30.19R
LIMON CO       CLOUDY    40  25  55 NW6       30.27R
$$

...UNOFFICIAL OBSERVATIONS...

CITY           SKY/WX    TMP DP  RH WIND       PRES   REMARKS
COLBY KS       CLEAR     57  43  58 NW6       30.14S
LENORA KS        N/A     51  32  48 MISG        N/A
NORTON KS      CLEAR     54  39  58 NW10      30.10R
SHARON SPRINGS   N/A     51  39  64 NW6         N/A
KIT CARSON CO    N/A     52  34  51 MISG        N/A
$$




USA.gov is the U.S. government's official web portal to all federal, state and local government web resources and services.